period_start,C,m1,H,J0,J1,J2,J3,J4,J5,JA,JB,JC,JD,JJ,JK,JN,#
2018-04-03 00:02:56,0.17,3.07,0.00,27.36,29.97,32.86,13.90,48.77,1025.40,2013.07,2347.51,2319.58,2652.49,600.11,592.59,21.04,0000 0000 0000 0000 000000
2018-04-03 00:07:58,0.20,3.09,0.00,27.37,29.97,32.85,13.84,48.71,1025.39,2013.05,2344.84,2317.66,2650.21,599.94,592.33,21.09,0000 0000 0000 0000 000000
2018-04-03 00:12:59,0.20,3.09,0.00,27.38,29.97,32.84,13.75,48.65,1025.40,2013.01,2342.04,2315.72,2648.03,600.03,592.42,21.14,0000 0000 0000 0000 000000
2018-04-03 00:18:00,0.21,3.11,0.00,27.40,29.97,32.83,13.80,48.68,1025.40,2013.04,2339.16,2313.77,2645.81,599.79,592.18,21.19,0000 0000 0000 0000 000000
2018-04-03 00:23:02,0.19,3.12,0.00,27.41,29.98,32.84,13.84,48.71,1025.22,2013.04,2336.46,2311.91,2643.55,600.05,592.31,21.24,0000 0000 0000 0000 000000
2018-04-03 00:28:03,0.21,3.12,0.00,27.41,29.99,32.84,13.76,48.73,1025.20,2013.01,2333.58,2309.90,2641.33,599.66,591.92,21.29,0000 0000 0000 0000 000000
2018-04-03 00:33:04,0.19,3.14,0.00,27.43,30.00,32.85,13.81,48.66,1025.21,2013.03,2330.96,2308.03,2639.20,599.72,592.07,21.34,0000 0000 0000 0000 000000
2018-04-03 00:38:06,0.19,3.15,0.00,27.42,30.00,32.85,13.75,48.71,1025.33,2013.02,2328.41,2306.17,2637.10,599.91,592.22,21.39,0000 0000 0000 0000 000000
2018-04-03 00:43:07,0.19,3.16,0.00,27.44,30.00,32.86,13.91,48.69,1025.32,2013.00,2325.85,2304.32,2634.86,600.42,592.64,21.44,0000 0000 0000 0000 000000
2018-04-03 00:48:08,0.18,3.16,0.00,27.46,30.02,32.86,13.80,48.62,1025.33,2013.00,2323.40,2302.57,2632.75,600.02,592.30,21.49,0000 0000 0000 0000 000000
2018-04-03 00:53:09,0.19,3.17,0.00,27.47,30.02,32.87,13.68,48.52,1025.02,2013.00,2320.80,2300.81,2630.70,599.86,591.86,21.54,0000 0000 0000 0000 000000
2018-04-03 00:58:11,0.17,3.18,0.00,27.49,30.02,32.87,13.84,48.65,1025.02,2013.00,2318.43,2299.09,2628.68,599.96,592.00,21.59,0000 0000 0000 0000 000000
2018-04-03 01:03:12,0.18,3.19,0.00,27.52,30.04,32.87,13.77,48.66,1025.16,2013.00,2316.14,2297.36,2626.70,600.09,592.19,21.64,0000 0000 0000 0000 000000
2018-04-03 01:08:13,0.18,3.20,0.00,27.53,30.05,32.90,13.77,48.58,1025.17,2013.00,2313.57,2295.63,2624.67,599.96,592.12,21.69,0000 0000 0000 0000 000000
2018-04-03 01:13:14,0.20,3.21,0.00,27.56,30.05,32.88,13.77,48.56,1025.05,2013.00,2310.93,2293.76,2622.70,600.20,592.10,21.74,0000 0000 0000 0000 000000
2018-04-03 01:18:16,0.21,3.22,0.00,27.58,30.07,32.91,13.75,48.68,1025.07,2013.00,2307.99,2291.72,2620.51,599.98,591.83,21.79,0000 0000 0000 0000 000000
2018-04-03 01:23:17,0.19,3.23,0.00,27.60,30.07,32.93,13.85,48.65,1024.96,2013.00,2305.49,2289.83,2618.32,600.34,591.99,21.84,0000 0000 0000 0000 000000
2018-04-03 01:28:18,0.18,3.24,0.00,27.60,30.09,32.90,13.85,48.72,1024.92,2012.99,2303.20,2288.12,2616.27,600.10,591.81,21.89,0000 0000 0000 0000 000000
2018-04-03 01:33:19,0.20,3.25,0.00,27.65,30.10,32.94,13.74,48.82,1024.93,2012.99,2300.58,2286.28,2614.22,600.29,591.84,21.94,0000 0000 0000 0000 000000
2018-04-03 01:38:21,0.19,3.26,0.00,27.67,30.11,32.93,13.81,48.83,1024.92,2012.98,2297.98,2284.39,2612.10,599.84,591.43,21.99,0000 0000 0000 0000 000000
2018-04-03 01:43:22,0.19,3.27,0.00,27.70,30.12,32.96,13.69,48.69,1024.92,2012.97,2295.47,2282.54,2609.98,599.58,591.06,22.04,0000 0000 0000 0000 000000
2018-04-03 01:48:23,0.21,3.28,0.00,27.73,30.13,32.99,13.84,48.69,1024.92,2012.97,2292.80,2280.69,2607.87,600.20,591.62,22.09,0000 0000 0000 0000 000000
2018-04-03 01:53:24,0.18,3.29,0.00,27.74,30.15,32.96,13.81,48.64,1024.90,2012.95,2290.17,2278.86,2605.79,600.11,591.53,22.14,0000 0000 0000 0000 000000
2018-04-03 01:58:25,0.23,3.30,0.00,27.79,30.16,32.99,13.71,48.70,1024.88,2012.96,2287.20,2276.83,2603.55,599.70,591.02,22.19,0000 0000 0000 0000 000000
2018-04-03 02:03:27,0.20,3.31,0.00,27.82,30.17,32.99,13.88,48.74,1024.93,2012.93,2284.35,2274.81,2601.26,599.79,590.95,22.24,0000 0000 0000 0000 000000
2018-04-03 02:08:29,0.19,3.32,0.00,27.83,30.20,33.04,13.85,48.83,1025.04,2012.79,2281.67,2272.91,2599.01,600.07,591.43,22.29,0000 0000 0000 0000 000000
2018-04-03 02:13:30,0.16,3.33,0.00,27.86,30.21,33.03,13.75,48.67,1025.03,2012.40,2278.77,2270.87,2596.71,600.03,591.29,22.34,0000 0000 0000 0000 000000
2018-04-03 02:18:31,0.23,3.34,0.00,27.89,30.22,33.06,13.79,48.62,1025.14,2012.43,2275.89,2268.87,2594.47,600.34,591.59,22.39,0000 0000 0000 0000 000000
2018-04-03 02:23:33,0.18,3.35,0.00,27.92,30.24,33.09,13.82,48.69,1025.05,2012.09,2273.08,2266.90,2592.20,600.38,591.46,22.44,0000 0000 0000 0000 000000
2018-04-03 02:28:34,0.20,3.36,0.00,27.95,30.26,33.08,13.71,48.73,1024.97,2012.02,2270.25,2264.92,2589.90,599.72,590.84,22.49,0000 0000 0000 0000 000000
2018-04-03 02:33:35,0.21,3.37,0.00,28.00,30.27,33.12,13.77,48.73,1025.10,2012.01,2267.48,2263.02,2587.67,600.08,591.13,22.54,0000 0000 0000 0000 000000
2018-04-03 02:38:37,0.20,3.38,0.00,28.02,30.30,33.13,13.81,48.61,1024.94,2012.00,2264.59,2261.07,2585.41,600.11,591.00,22.59,0000 0000 0000 0000 000000
2018-04-03 02:43:38,0.21,3.39,0.00,28.02,30.32,33.15,13.80,48.73,1024.93,2012.00,2261.73,2259.13,2583.23,600.20,591.06,22.64,0000 0000 0000 0000 000000
2018-04-03 02:48:39,0.21,3.41,0.00,28.07,30.34,33.17,13.78,48.67,1024.93,2012.00,2258.98,2257.20,2581.04,600.24,591.11,22.69,0000 0000 0000 0000 000000
2018-04-03 02:53:41,0.21,3.42,0.00,28.09,30.36,33.23,13.77,48.71,1024.92,2012.00,2256.19,2255.26,2578.84,599.88,590.70,22.74,0000 0000 0000 0000 000000
2018-04-03 02:58:42,0.21,3.43,0.00,28.14,30.38,33.21,13.67,48.62,1024.92,2011.98,2253.38,2253.25,2576.54,599.83,590.51,22.79,0000 0000 0000 0000 000000
2018-04-03 03:03:43,0.29,3.44,0.00,28.18,30.41,33.23,13.76,48.60,1024.92,2011.94,2249.49,2250.96,2573.90,599.99,590.57,22.84,0000 0000 0000 0000 000000
2018-04-03 03:08:45,0.34,3.46,0.00,28.23,30.43,33.25,13.77,48.68,1025.01,2011.81,2244.13,2248.12,2570.69,599.92,590.45,22.89,0000 0000 0000 0000 000000
2018-04-03 03:13:46,0.23,3.47,0.00,28.25,30.45,33.27,13.79,48.61,1024.96,2011.38,2239.61,2245.49,2567.74,600.00,590.45,22.94,0000 0000 0000 0000 000000
2018-04-03 03:18:47,0.19,3.48,0.00,28.29,30.48,33.31,13.81,48.63,1024.93,2011.10,2236.68,2243.51,2565.49,600.13,590.52,22.99,0000 0000 0000 0000 000000
2018-04-03 03:23:48,0.18,3.49,0.00,28.34,30.50,33.32,13.70,48.67,1025.00,2011.02,2234.20,2241.69,2563.41,600.04,590.22,23.04,0000 0000 0000 0000 000000
2018-04-03 03:28:50,0.18,3.50,0.00,28.38,30.53,33.35,13.71,48.62,1024.93,2011.00,2231.87,2239.97,2561.45,599.87,590.06,23.09,0000 0000 0000 0000 000000
2018-04-03 03:33:51,0.18,3.51,0.00,28.41,30.55,33.36,13.79,48.59,1025.00,2011.00,2229.49,2238.43,2559.52,600.11,590.40,23.14,0000 0000 0000 0000 000000
2018-04-03 03:38:52,0.21,3.52,0.00,28.46,30.58,33.42,13.76,48.66,1024.96,2011.00,2226.89,2236.48,2557.47,600.09,590.14,23.19,0000 0000 0000 0000 000000
2018-04-03 03:43:54,0.23,3.53,0.00,28.52,30.61,33.45,13.72,48.61,1025.16,2010.99,2224.04,2234.37,2555.12,600.07,590.18,23.24,0000 0000 0000 0000 000000
2018-04-03 03:48:55,0.24,3.54,0.00,28.55,30.63,33.46,13.69,48.58,1025.03,2010.94,2220.88,2232.10,2552.50,600.04,589.95,23.29,0000 0000 0000 0000 000000
2018-04-03 03:53:56,0.23,3.56,0.00,28.62,30.66,33.49,13.70,48.50,1024.95,2010.82,2217.81,2229.90,2549.99,599.95,589.68,23.34,0000 0000 0000 0000 000000
2018-04-03 03:58:57,0.16,3.56,0.00,28.68,30.69,33.51,13.71,48.48,1024.93,2010.35,2214.90,2227.73,2547.54,600.00,589.53,23.39,0000 0000 0000 0000 000000
2018-04-03 04:03:59,0.21,3.57,0.00,28.74,30.73,33.55,13.63,48.48,1024.94,2010.06,2212.14,2225.64,2545.15,599.70,589.20,23.44,0000 0000 0000 0000 000000
2018-04-03 04:08:59,0.23,3.59,0.00,28.79,30.76,33.57,13.79,48.48,1024.94,2010.00,2209.25,2223.53,2542.75,600.24,589.63,23.49,0000 0000 0000 0000 000000
2018-04-03 04:14:01,0.23,3.60,0.00,28.82,30.81,33.60,13.60,48.52,1024.97,2010.00,2206.45,2221.41,2540.33,599.82,589.17,23.54,0000 0000 0000 0000 000000
2018-04-03 04:19:02,0.23,3.61,0.00,28.90,30.85,33.65,13.71,48.61,1024.98,2009.99,2203.61,2219.31,2537.97,599.94,589.09,23.59,0000 0000 0000 0000 000000
2018-04-03 04:24:03,0.22,3.62,0.00,28.96,30.89,33.69,13.58,48.53,1025.09,2009.87,2200.65,2217.10,2535.41,599.70,588.96,23.64,0000 0000 0000 0000 000000
2018-04-03 04:29:05,0.16,3.63,0.00,29.02,30.93,33.72,13.62,48.54,1024.98,2009.33,2197.74,2214.96,2532.92,599.65,588.62,23.69,0000 0000 0000 0000 000000
2018-04-03 04:34:06,0.20,3.64,0.00,29.06,30.98,33.75,13.75,48.64,1024.93,2009.03,2195.07,2212.93,2530.61,600.05,588.91,23.74,0000 0000 0000 0000 000000
2018-04-03 04:39:07,0.20,3.65,0.00,29.10,31.02,33.79,13.65,48.58,1024.96,2009.00,2192.54,2210.95,2528.42,599.64,588.37,23.79,0000 0000 0000 0000 000000
2018-04-03 04:44:08,0.21,3.66,0.00,29.14,31.06,33.84,13.74,48.53,1024.94,2009.00,2190.19,2209.13,2526.23,600.15,588.67,23.84,0000 0000 0000 0000 000000
2018-04-03 04:49:09,0.19,3.67,0.00,29.17,31.10,33.87,13.80,48.63,1025.10,2008.91,2187.69,2207.25,2524.08,600.28,589.03,23.89,0000 0000 0000 0000 000000
2018-04-03 04:54:11,0.14,3.68,0.00,29.22,31.15,33.91,13.58,48.50,1025.34,2008.28,2185.14,2205.32,2521.93,599.84,588.71,23.94,0000 0000 0000 0000 000000
2018-04-03 04:59:13,0.20,3.69,0.00,29.25,31.19,33.98,13.76,48.55,1025.21,2008.04,2182.45,2203.41,2519.73,600.13,588.80,24.00,0000 0000 0000 0000 000000
2018-04-03 05:04:14,0.25,3.70,0.00,29.27,31.23,34.01,13.71,48.59,1025.29,2008.00,2179.48,2201.28,2517.30,600.20,588.89,24.05,0000 0000 0000 0000 000000
2018-04-03 05:09:15,0.23,3.71,0.00,29.31,31.27,34.06,13.86,48.61,1025.31,2008.00,2176.57,2199.22,2514.89,600.63,589.28,24.10,0000 0000 0000 0000 000000
2018-04-03 05:14:16,0.24,3.72,0.00,29.36,31.31,34.08,13.66,48.48,1025.16,2007.97,2173.67,2197.06,2512.44,599.89,588.21,24.15,0000 0000 0000 0000 000000
2018-04-03 05:19:18,0.21,3.74,0.00,29.43,31.35,34.12,13.71,48.48,1025.16,2007.72,2170.52,2194.79,2509.89,599.87,588.09,24.20,0000 0000 0000 0000 000000
2018-04-03 05:24:19,0.21,3.75,0.00,29.49,31.39,34.19,13.53,48.42,1025.14,2007.19,2167.23,2192.46,2507.24,599.70,587.92,24.25,0000 0000 0000 0000 000000
2018-04-03 05:29:20,0.24,3.76,0.00,29.52,31.43,34.21,13.71,48.52,1025.18,2007.02,2164.08,2190.22,2504.65,600.16,588.27,24.30,0000 0000 0000 0000 000000
2018-04-03 05:34:21,0.26,3.77,0.00,29.55,31.47,34.24,13.66,48.38,1025.13,2007.00,2160.99,2187.95,2502.08,600.26,588.32,24.35,0000 0000 0000 0000 000000
2018-04-03 05:39:23,0.24,3.78,0.00,29.51,31.51,34.32,13.72,48.61,1024.96,2006.96,2157.97,2185.73,2499.51,600.31,588.42,24.40,0000 0000 0000 0000 000000
2018-04-03 05:44:24,0.23,3.80,0.00,29.37,31.52,34.33,13.65,48.42,1025.03,2006.93,2155.14,2183.75,2497.23,599.89,588.21,24.45,0000 0000 0000 0000 000000
2018-04-03 05:49:25,0.22,3.81,0.00,29.21,31.53,34.34,13.71,48.62,1025.01,2006.85,2152.40,2181.68,2495.02,599.89,588.50,24.50,0000 0000 0000 0000 000000
2018-04-03 05:54:26,0.17,3.82,0.00,29.11,31.55,34.33,13.81,48.59,1025.04,2006.68,2149.97,2179.85,2493.01,600.12,588.98,24.55,0000 0000 0000 0000 000000
2018-04-03 05:59:28,0.17,3.83,0.00,29.04,31.55,34.34,13.76,48.58,1025.33,2006.55,2147.61,2178.14,2491.06,600.08,589.22,24.60,0000 0000 0000 0000 000000
2018-04-03 06:04:29,0.16,3.83,0.00,28.97,31.54,34.32,13.71,48.74,1025.37,2006.31,2145.29,2176.51,2489.10,600.10,589.45,24.65,0000 0000 0000 0000 000000
2018-04-03 06:09:30,0.19,3.84,0.00,28.95,31.52,34.30,13.80,48.69,1025.39,2006.31,2142.95,2174.91,2487.30,600.19,589.54,24.70,0000 0000 0000 0000 000000
2018-04-03 06:14:32,0.20,3.85,0.00,28.95,31.52,34.29,13.84,48.73,1025.40,2006.44,2140.50,2173.42,2485.47,600.27,589.57,24.75,0000 0000 0000 0000 000000
2018-04-03 06:19:33,0.20,3.86,0.00,28.76,31.51,34.35,13.74,48.52,1025.39,2006.49,2138.03,2171.81,2483.68,600.24,590.08,24.80,0000 0000 0000 0000 000000
2018-04-03 06:24:34,0.24,3.88,0.00,28.21,31.45,34.30,13.93,48.71,1025.39,2006.80,2135.37,2170.33,2481.83,600.46,591.16,24.85,0000 0000 0000 0000 000000
2018-04-03 06:29:36,0.18,3.89,0.00,27.55,31.35,34.15,13.84,49.10,1025.40,2006.99,2132.79,2168.94,2480.39,599.82,591.89,24.90,0000 0000 0000 0000 000000
2018-04-03 06:34:37,0.23,3.89,0.00,27.26,31.21,33.45,13.97,49.05,1025.33,2007.47,2130.55,2167.87,2479.13,600.17,592.91,24.95,0000 0000 0000 0000 000000
2018-04-03 06:39:38,0.14,3.91,0.00,27.17,31.05,32.52,13.80,48.86,1025.05,2008.00,2128.73,2166.93,2478.02,599.91,592.59,25.00,0000 0000 0000 0000 000000
2018-04-03 06:44:39,0.23,3.92,0.00,27.01,30.88,32.02,13.81,48.97,1024.92,2008.75,2126.89,2165.98,2476.93,599.77,592.69,25.05,0000 0000 0000 0000 000000
2018-04-03 06:49:40,0.18,3.93,0.00,26.81,30.71,31.68,13.77,49.23,1024.92,2009.12,2124.73,2164.87,2475.68,600.00,593.27,25.10,0000 0000 0000 0000 000000
2018-04-03 06:54:42,0.26,3.94,0.00,26.66,30.54,31.45,13.76,49.32,1024.92,2009.90,2122.40,2163.69,2474.39,599.72,593.26,25.15,0000 0000 0000 0000 000000
2018-04-03 06:59:43,0.22,3.95,0.00,26.56,30.39,31.20,13.84,49.42,1024.86,2010.27,2120.06,2162.45,2472.92,600.16,593.79,25.20,0000 0000 0000 0000 000000
2018-04-03 07:04:44,0.21,3.96,0.00,26.55,30.24,31.01,13.72,49.30,1024.80,2010.96,2117.82,2161.32,2471.56,600.00,593.73,25.25,0000 0000 0000 0000 000000
2018-04-03 07:09:46,0.21,3.97,0.00,26.60,30.11,30.96,13.80,49.18,1024.70,2011.32,2115.73,2160.14,2470.27,599.84,593.44,25.30,0000 0000 0000 0000 000000
2018-04-03 07:14:47,0.17,3.98,0.00,26.67,29.99,30.97,13.74,49.16,1024.59,2011.96,2114.03,2159.15,2469.07,600.00,593.28,25.35,0000 0000 0000 0000 000000
2018-04-03 07:19:49,0.18,3.99,0.00,26.74,29.87,31.02,13.73,49.25,1024.50,2012.23,2112.21,2158.06,2467.86,599.86,593.15,25.40,0000 0000 0000 0000 000000
2018-04-03 07:24:50,0.24,4.00,0.00,26.85,29.76,31.03,13.75,49.10,1024.69,2012.94,2110.14,2156.87,2466.52,599.88,593.01,25.45,0000 0000 0000 0000 000000
2018-04-03 07:29:51,0.19,4.01,0.00,26.93,29.65,30.99,13.74,48.98,1024.55,2013.09,2107.71,2155.63,2465.00,599.91,592.73,25.50,0000 0000 0000 0000 000000
2018-04-03 07:34:53,0.26,4.02,0.00,26.97,29.55,31.02,13.81,49.11,1024.74,2013.87,2105.30,2154.35,2463.62,600.00,592.83,25.55,0000 0000 0000 0000 000000
2018-04-03 07:39:54,0.19,4.03,0.00,26.84,29.45,31.03,13.78,49.13,1024.84,2014.07,2102.88,2152.96,2462.01,599.99,593.17,25.60,0000 0000 0000 0000 000000
2018-04-03 07:44:55,0.29,4.05,0.00,26.75,29.36,31.15,13.80,49.15,1024.75,2014.83,2100.37,2151.62,2460.50,599.75,593.06,25.65,0000 0000 0000 0000 000000
2018-04-03 07:49:56,0.22,4.06,0.00,26.76,29.29,31.46,13.78,49.18,1024.89,2015.01,2097.57,2150.08,2458.69,599.86,593.26,25.70,0000 0000 0000 0000 000000
2018-04-03 07:54:58,0.28,4.07,0.00,26.79,29.22,31.58,13.76,49.11,1024.89,2015.58,2095.02,2148.61,2456.96,599.89,593.18,25.75,0000 0000 0000 0000 000000
2018-04-03 07:59:59,0.20,4.09,0.00,26.83,29.17,31.65,13.70,49.05,1024.92,2015.97,2092.52,2147.10,2455.33,599.88,593.16,25.80,0000 0000 0000 0000 000000
2018-04-03 08:05:00,0.22,4.09,0.00,26.91,29.13,31.71,13.85,49.08,1024.92,2015.99,2089.88,2145.52,2453.46,600.21,593.20,25.85,0000 0000 0000 0000 000000
2018-04-03 08:10:01,0.22,4.11,0.00,26.98,29.10,31.64,13.76,48.98,1024.92,2016.03,2087.24,2143.79,2451.51,599.80,592.72,25.90,0000 0000 0000 0000 000000
2018-04-03 08:15:02,0.26,4.12,0.00,27.03,29.08,31.63,13.86,48.98,1024.92,2016.33,2084.64,2142.09,2449.56,600.24,593.10,25.95,0000 0000 0000 0000 000000
2018-04-03 08:20:03,0.24,4.13,0.00,27.09,29.07,31.66,13.79,48.95,1024.92,2016.83,2082.32,2140.48,2447.74,599.88,592.71,26.00,0000 0000 0000 0000 000000
2018-04-03 08:25:05,0.19,4.14,0.00,27.15,29.07,31.65,13.80,48.99,1024.92,2016.94,2080.22,2138.97,2445.99,600.22,592.93,26.05,0000 0000 0000 0000 000000
2018-04-03 08:30:06,0.17,4.15,0.00,27.21,29.07,31.68,13.69,48.95,1024.94,2016.96,2078.17,2137.55,2444.40,599.82,592.36,26.10,0000 0000 0000 0000 000000
2018-04-03 08:35:07,0.17,4.16,0.00,27.26,29.07,31.74,13.72,48.90,1025.01,2016.98,2076.18,2136.12,2442.68,599.94,592.39,26.15,0000 0000 0000 0000 000000
2018-04-03 08:40:09,0.18,4.17,0.00,27.33,29.10,31.77,13.88,48.88,1025.05,2016.97,2074.16,2134.62,2441.03,600.48,592.87,26.20,0000 0000 0000 0000 000000
2018-04-03 08:45:10,0.16,4.18,0.00,27.39,29.11,31.83,13.83,48.94,1025.20,2016.95,2072.11,2133.14,2439.30,600.05,592.27,26.25,0000 0000 0000 0000 000000
2018-04-03 08:50:11,0.20,4.19,0.00,27.47,29.13,31.89,13.79,48.97,1025.38,2016.95,2069.93,2131.58,2437.53,600.32,592.53,26.30,0000 0000 0000 0000 000000
2018-04-03 08:55:13,0.21,4.20,0.00,27.50,29.16,31.94,13.77,48.92,1025.40,2016.82,2067.42,2129.75,2435.46,599.95,592.12,26.35,0000 0000 0000 0000 000000
2018-04-03 09:00:14,0.19,4.21,0.00,27.54,29.19,32.00,13.81,48.70,1025.40,2016.68,2065.01,2128.06,2433.43,600.29,592.41,26.40,0000 0000 0000 0000 000000
2018-04-03 09:05:15,0.13,4.22,0.00,27.59,29.23,32.03,13.80,48.88,1025.40,2016.13,2062.61,2126.26,2431.50,599.81,591.83,26.45,0000 0000 0000 0000 000000
2018-04-03 09:10:16,0.21,4.22,0.00,27.64,29.26,32.07,13.74,48.90,1025.42,2016.03,2060.29,2124.59,2429.60,599.57,591.50,26.50,0000 0000 0000 0000 000000
2018-04-03 09:15:18,0.21,4.24,0.00,27.66,29.30,32.12,13.75,48.78,1025.47,2016.00,2058.00,2122.81,2427.60,600.07,591.97,26.55,0000 0000 0000 0000 000000
2018-04-03 09:20:19,0.19,4.25,0.00,27.71,29.34,32.17,13.80,48.88,1025.70,2016.00,2055.68,2121.14,2425.65,600.17,592.15,26.60,0000 0000 0000 0000 000000
2018-04-03 09:25:20,0.20,4.26,0.00,27.73,29.38,32.23,13.76,48.82,1025.88,2016.00,2053.41,2119.42,2423.71,600.10,592.12,26.65,0000 0000 0000 0000 000000
2018-04-03 09:30:21,0.21,4.27,0.00,27.76,29.41,32.28,13.75,48.83,1025.89,2015.99,2051.15,2117.68,2421.68,599.85,591.87,26.70,0000 0000 0000 0000 000000
2018-04-03 09:35:23,0.20,4.28,0.00,27.78,29.46,32.33,13.78,48.80,1025.89,2015.89,2048.73,2115.88,2419.61,600.10,592.17,26.75,0000 0000 0000 0000 000000
2018-04-03 09:40:24,0.14,4.29,0.00,27.79,29.49,32.38,13.69,48.87,1025.89,2015.43,2046.56,2114.08,2417.55,600.10,591.72,26.80,0000 0000 0000 0000 000000
2018-04-03 09:45:25,0.17,4.29,0.00,27.78,29.53,32.41,13.78,48.83,1025.89,2015.05,2044.38,2112.36,2415.52,600.23,592.14,26.85,0000 0000 0000 0000 000000
2018-04-03 09:50:27,0.22,4.30,0.00,27.81,29.57,32.45,13.78,48.85,1025.90,2015.01,2041.94,2110.67,2413.45,599.97,591.83,26.90,0000 0000 0000 0000 000000
2018-04-03 09:55:28,0.20,4.31,0.00,27.83,29.61,32.50,13.76,48.77,1025.91,2014.98,2039.72,2108.95,2411.38,600.00,591.69,26.95,0000 0000 0000 0000 000000
2018-04-03 10:00:29,0.17,4.32,0.00,27.87,29.65,32.54,13.67,48.74,1025.91,2014.81,2037.42,2107.21,2409.37,599.65,591.51,27.00,0000 0000 0000 0000 000000
2018-04-03 10:05:31,0.16,4.33,0.00,27.89,29.69,32.58,13.60,48.60,1025.95,2014.32,2035.13,2105.47,2407.36,599.75,591.42,27.05,0000 0000 0000 0000 000000
2018-04-03 10:10:32,0.20,4.34,0.00,27.92,29.73,32.63,13.87,48.73,1025.98,2014.01,2032.76,2103.67,2405.30,600.45,592.15,27.10,0000 0000 0000 0000 000000
2018-04-03 10:15:33,0.21,4.35,0.00,27.95,29.76,32.67,13.90,48.77,1026.05,2014.00,2030.43,2101.87,2403.28,600.50,592.24,27.15,0000 0000 0000 0000 000000
2018-04-03 10:20:34,0.20,4.36,0.00,27.97,29.79,32.71,13.74,48.74,1026.00,2013.99,2028.23,2100.18,2401.30,599.72,591.44,27.20,0000 0000 0000 0000 000000
2018-04-03 10:25:35,0.20,4.37,0.00,27.97,29.83,32.75,13.68,48.62,1026.14,2013.95,2026.00,2098.47,2399.33,599.58,591.26,27.25,0000 0000 0000 0000 000000
2018-04-03 10:30:36,0.17,4.38,0.00,27.99,29.86,32.79,13.78,48.56,1026.34,2013.79,2023.87,2096.84,2397.41,599.87,591.64,27.30,0000 0000 0000 0000 000000
2018-04-03 10:35:38,0.15,4.39,0.00,27.99,29.90,32.81,13.71,48.58,1026.37,2013.26,2021.57,2095.11,2395.44,599.74,591.72,27.35,0000 0000 0000 0000 000000
2018-04-03 10:40:39,0.19,4.40,0.00,28.00,29.93,32.87,13.81,48.63,1026.38,2013.05,2019.28,2093.37,2393.43,600.03,591.83,27.40,0000 0000 0000 0000 000000
2018-04-03 10:45:40,0.21,4.41,0.00,28.00,29.96,32.93,13.85,48.59,1026.38,2013.00,2017.09,2091.68,2391.49,600.12,591.93,27.46,0000 0000 0000 0000 000000
2018-04-03 10:50:41,0.20,4.42,0.00,28.01,30.00,32.96,13.79,48.53,1026.38,2013.00,2014.79,2089.96,2389.49,599.98,591.73,27.51,0000 0000 0000 0000 000000
2018-04-03 10:55:43,0.21,4.43,0.00,28.03,30.02,32.96,13.79,48.53,1026.39,2012.98,2012.41,2088.30,2387.54,600.10,591.77,27.56,0000 0000 0000 0000 000000
2018-04-03 11:00:44,0.21,4.44,0.00,28.02,30.05,33.00,13.75,48.62,1026.39,2012.92,2010.12,2086.56,2385.56,599.92,591.47,27.61,0000 0000 0000 0000 000000
2018-04-03 11:05:45,0.12,4.45,0.00,28.01,30.08,33.02,13.74,48.57,1026.39,2012.44,2008.01,2084.85,2383.67,600.01,591.76,27.66,0000 0000 0000 0000 000000
2018-04-03 11:10:46,0.19,4.46,0.00,28.00,30.10,33.05,13.80,48.57,1026.39,2012.06,2005.62,2083.23,2381.74,600.21,591.99,27.71,0000 0000 0000 0000 000000
2018-04-03 11:15:47,0.20,4.47,0.00,28.00,30.12,33.09,13.85,48.82,1026.38,2012.04,2003.39,2081.55,2379.87,600.28,592.08,27.76,0000 0000 0000 0000 000000
2018-04-03 11:20:49,0.18,4.48,0.00,28.01,30.15,33.11,13.76,48.63,1026.39,2012.02,2001.32,2079.98,2378.07,600.07,591.76,27.81,0000 0000 0000 0000 000000
2018-04-03 11:25:50,0.21,4.49,0.00,28.01,30.17,33.14,13.75,48.49,1026.39,2012.00,1999.13,2078.34,2376.21,599.57,591.34,27.86,0000 0000 0000 0000 000000
2018-04-03 11:30:51,0.20,4.50,0.00,28.00,30.19,33.15,13.85,48.61,1026.40,2012.00,1997.16,2076.76,2374.44,600.29,592.07,27.91,0000 0000 0000 0000 000000
2018-04-03 11:35:53,0.19,4.51,0.00,27.99,30.20,33.17,13.76,48.60,1026.41,2012.00,1995.02,2075.22,2372.63,600.02,591.82,27.96,0000 0000 0000 0000 000000
2018-04-03 11:40:54,0.22,4.52,0.00,28.00,30.22,33.20,13.80,48.60,1026.41,2011.99,1992.62,2073.59,2370.76,600.02,591.81,28.01,0000 0000 0000 0000 000000
2018-04-03 11:45:56,0.18,4.53,0.00,27.99,30.24,33.17,13.81,48.66,1026.41,2011.98,1990.38,2072.03,2368.93,599.80,591.63,28.06,0000 0000 0000 0000 000000
2018-04-03 11:50:57,0.19,4.54,0.00,27.97,30.25,33.21,13.81,48.55,1026.42,2011.94,1988.34,2070.49,2367.24,600.06,591.93,28.11,0000 0000 0000 0000 000000
2018-04-03 11:55:58,0.18,4.55,0.00,27.97,30.27,33.21,13.78,48.49,1026.44,2011.86,1986.32,2068.90,2365.61,600.03,592.02,28.16,0000 0000 0000 0000 000000
2018-04-03 12:01:00,0.17,4.56,0.00,27.95,30.28,33.25,13.82,48.54,1026.41,2011.68,1984.28,2067.49,2363.83,599.85,591.79,28.21,0000 0000 0000 0000 000000
2018-04-03 12:06:01,0.16,4.57,0.00,27.94,30.30,33.22,13.74,48.41,1026.40,2011.43,1982.30,2065.89,2362.11,600.07,591.93,28.26,0000 0000 0000 0000 000000
2018-04-03 12:11:02,0.16,4.57,0.00,27.93,30.31,33.27,13.86,48.49,1026.39,2011.09,1980.10,2064.40,2360.36,600.22,592.12,28.31,0000 0000 0000 0000 000000
2018-04-03 12:16:03,0.17,4.58,0.00,27.94,30.32,33.25,13.81,48.56,1026.39,2011.11,1978.29,2062.98,2358.75,599.82,591.81,28.36,0000 0000 0000 0000 000000
2018-04-03 12:21:05,0.20,4.59,0.00,27.93,30.32,33.26,13.75,48.52,1026.41,2011.03,1975.96,2061.51,2357.00,599.56,591.48,28.41,0000 0000 0000 0000 000000
2018-04-03 12:26:06,0.18,4.60,0.00,27.92,30.35,33.26,13.77,48.54,1026.50,2011.03,1974.00,2059.99,2355.31,599.67,591.66,28.46,0000 0000 0000 0000 000000
2018-04-03 12:31:07,0.20,4.61,0.00,27.92,30.35,33.26,13.81,48.59,1026.55,2011.00,1971.88,2058.52,2353.61,599.93,591.96,28.51,0000 0000 0000 0000 000000
2018-04-03 12:36:09,0.19,4.62,0.00,27.92,30.36,33.27,13.75,48.63,1026.71,2011.00,1969.74,2056.96,2351.83,599.97,592.08,28.56,0000 0000 0000 0000 000000
2018-04-03 12:41:10,0.19,4.63,0.00,27.92,30.37,33.27,13.82,48.72,1026.75,2011.00,1967.74,2055.51,2350.11,600.10,592.13,28.61,0000 0000 0000 0000 000000
2018-04-03 12:46:11,0.20,4.64,0.00,27.91,30.37,33.30,13.90,48.73,1026.77,2011.00,1965.69,2053.90,2348.37,600.52,592.69,28.66,0000 0000 0000 0000 000000
2018-04-03 12:51:12,0.18,4.65,0.00,27.90,30.39,33.30,13.83,48.74,1026.78,2011.00,1963.85,2052.51,2346.71,600.08,592.30,28.71,0000 0000 0000 0000 000000
2018-04-03 12:56:14,0.14,4.66,0.00,27.90,30.40,33.29,13.82,48.77,1026.76,2011.00,1962.25,2051.32,2345.33,600.13,592.37,28.76,0000 0000 0000 0000 000000